DAL4354 KPHX-KSAN

Flight info

Callsign DAL4354
Flight time 0h 49m
Altitude 28000
Route FYRBD1 MOHAK J2 HOGGZ LUCKI1
Aircraft A320/M-SDE3FGHIRWY/LB1

Departure

Time 2026-05-04 05:11
Airport Phoenix Sky Harbor International Airport (KPHX)

Arrival

Time 2026-05-04 06:00
Airport San Diego International Airport (KSAN)
Time Latitude Longitude Altitude Speed Heading
2026-05-04 04:56 33.43784 -112.00670 1131 ft 0 kts 89°
2026-05-04 05:01 33.43784 -112.00684 1135 ft 2 kts 89°
2026-05-04 05:01 33.43784 -112.00703 1132 ft 2 kts 88°
2026-05-04 05:01 33.43783 -112.00723 1133 ft 2 kts 87°
2026-05-04 05:02 33.43776 -112.00739 1136 ft 2 kts 353°
2026-05-04 05:02 33.43772 -112.00738 1135 ft 0 kts 359°
2026-05-04 05:06 33.43862 -112.00474 1134 ft 8 kts 166°
2026-05-04 05:06 33.43788 -112.00470 1133 ft 12 kts 179°
2026-05-04 05:06 33.43698 -112.00470 1132 ft 16 kts 179°
2026-05-04 05:07 33.43568 -112.00470 1133 ft 16 kts 180°
2026-05-04 05:07 33.43450 -112.00470 1135 ft 18 kts 180°
2026-05-04 05:07 33.43322 -112.00471 1133 ft 15 kts 180°
2026-05-04 05:09 33.43213 -111.99595 1133 ft 27 kts 91°
2026-05-04 05:09 33.43211 -111.99417 1135 ft 19 kts 89°
2026-05-04 05:10 33.43165 -111.99350 1136 ft 11 kts 167°
2026-05-04 05:10 33.43104 -111.99397 1136 ft 13 kts 261°
2026-05-04 05:10 33.43104 -111.99438 1136 ft 3 kts 270°
2026-05-04 05:10 33.43104 -111.99535 1136 ft 34 kts 271°
2026-05-04 05:11 33.43104 -112.00199 1135 ft 123 kts 270°
2026-05-04 05:11 33.43109 -112.01491 1353 ft 174 kts 270°
2026-05-04 05:11 33.43079 -112.03033 2049 ft 196 kts 266°
2026-05-04 05:11 33.42986 -112.04735 2852 ft 212 kts 266°
2026-05-04 05:12 33.42874 -112.06542 3485 ft 225 kts 265°
2026-05-04 05:12 33.42642 -112.08473 3851 ft 244 kts 252°
2026-05-04 05:12 33.42081 -112.10468 4374 ft 262 kts 248°
2026-05-04 05:12 33.41406 -112.12551 5074 ft 272 kts 247°
2026-05-04 05:13 33.40696 -112.14666 5960 ft 274 kts 244°
2026-05-04 05:13 33.39634 -112.16518 6847 ft 271 kts 221°
2026-05-04 05:13 33.38051 -112.17664 7699 ft 272 kts 197°
2026-05-04 05:13 33.36173 -112.17936 8550 ft 275 kts 174°
2026-05-04 05:14 33.34300 -112.17386 9407 ft 279 kts 164°
2026-05-04 05:14 33.32428 -112.16718 10223 ft 282 kts 164°
2026-05-04 05:14 33.30518 -112.16033 10817 ft 295 kts 165°
2026-05-04 05:14 33.28488 -112.15385 11238 ft 311 kts 173°
2026-05-04 05:15 33.26316 -112.15628 11781 ft 321 kts 200°
2026-05-04 05:15 33.24460 -112.17097 12526 ft 327 kts 227°
2026-05-04 05:15 33.23381 -112.19496 13298 ft 335 kts 254°
2026-05-04 05:15 33.23020 -112.22270 13988 ft 341 kts 258°
2026-05-04 05:16 33.22478 -112.25025 14672 ft 341 kts 248°
2026-05-04 05:16 33.21398 -112.27528 15398 ft 340 kts 234°
2026-05-04 05:16 33.20027 -112.29845 16085 ft 343 kts 233°
2026-05-04 05:16 33.18582 -112.32126 16765 ft 345 kts 232°
2026-05-04 05:17 33.17099 -112.34395 17434 ft 348 kts 232°
2026-05-04 05:17 33.15596 -112.36672 18094 ft 351 kts 232°
2026-05-04 05:17 33.14078 -112.38977 18670 ft 354 kts 232°
2026-05-04 05:17 33.12560 -112.41295 19263 ft 355 kts 233°
2026-05-04 05:18 33.11043 -112.43630 19874 ft 357 kts 233°
2026-05-04 05:18 33.09522 -112.45982 20497 ft 358 kts 234°
2026-05-04 05:18 33.08000 -112.48341 21106 ft 360 kts 234°
2026-05-04 05:18 33.06473 -112.50709 21720 ft 361 kts 234°
2026-05-04 05:19 33.04933 -112.53090 22342 ft 363 kts 234°
2026-05-04 05:19 33.03387 -112.55477 22952 ft 365 kts 234°
2026-05-04 05:19 33.01831 -112.57875 23531 ft 367 kts 234°
2026-05-04 05:19 33.00266 -112.60283 24023 ft 368 kts 235°
2026-05-04 05:20 32.98696 -112.62700 24497 ft 370 kts 235°
2026-05-04 05:20 32.97166 -112.65165 24958 ft 370 kts 240°
2026-05-04 05:20 32.95979 -112.67865 25409 ft 369 kts 249°
2026-05-04 05:20 32.95243 -112.70588 25827 ft 369 kts 258°
2026-05-04 05:21 32.94810 -112.73597 26264 ft 370 kts 261°
2026-05-04 05:21 32.94414 -112.76629 26679 ft 371 kts 261°
2026-05-04 05:21 32.94008 -112.79669 27091 ft 373 kts 261°
2026-05-04 05:21 32.93597 -112.82722 27504 ft 374 kts 261°
2026-05-04 05:22 32.93181 -112.85783 27818 ft 374 kts 261°
2026-05-04 05:22 32.92768 -112.88807 27876 ft 363 kts 261°
2026-05-04 05:22 32.92374 -112.91699 27879 ft 345 kts 261°
2026-05-04 05:22 32.91997 -112.94473 27873 ft 339 kts 261°
2026-05-04 05:23 32.91619 -112.97247 27863 ft 339 kts 261°
2026-05-04 05:23 32.91242 -113.00014 27858 ft 339 kts 261°
2026-05-04 05:23 32.90864 -113.02784 27852 ft 339 kts 261°
2026-05-04 05:23 32.90483 -113.05555 27845 ft 340 kts 261°
2026-05-04 05:24 32.90094 -113.08388 27840 ft 354 kts 261°
2026-05-04 05:24 32.89691 -113.11331 27832 ft 367 kts 261°
2026-05-04 05:24 32.89273 -113.14378 27825 ft 378 kts 261°
2026-05-04 05:24 32.88843 -113.17511 27824 ft 388 kts 261°
2026-05-04 05:25 32.88406 -113.20687 27823 ft 390 kts 261°
2026-05-04 05:25 32.87966 -113.23879 27822 ft 390 kts 261°
2026-05-04 05:25 32.87524 -113.27067 27819 ft 390 kts 261°
2026-05-04 05:25 32.87085 -113.30211 27821 ft 394 kts 261°
2026-05-04 05:26 32.86631 -113.33461 27819 ft 402 kts 261°
2026-05-04 05:26 32.86170 -113.36764 27816 ft 410 kts 261°
2026-05-04 05:26 32.85701 -113.40120 27813 ft 411 kts 261°
2026-05-04 05:26 32.85233 -113.43478 27815 ft 412 kts 261°
2026-05-04 05:27 32.84758 -113.46854 27814 ft 415 kts 261°
2026-05-04 05:28 32.81411 -113.70517 27803 ft 413 kts 260°
2026-05-04 05:29 32.80929 -113.73885 27805 ft 413 kts 260°
2026-05-04 05:29 32.80449 -113.77251 27802 ft 413 kts 260°
2026-05-04 05:29 32.79969 -113.80620 27802 ft 413 kts 260°
2026-05-04 05:29 32.79491 -113.83978 27803 ft 412 kts 260°
2026-05-04 05:31 32.77485 -114.07588 27813 ft 412 kts 268°
2026-05-04 05:31 32.77538 -114.10986 27822 ft 412 kts 270°
2026-05-04 05:32 32.77671 -114.14388 27828 ft 412 kts 271°
2026-05-04 05:32 32.77845 -114.17783 27834 ft 412 kts 271°
2026-05-04 05:32 32.78021 -114.21184 27838 ft 412 kts 271°
2026-05-04 05:33 32.78336 -114.27965 27851 ft 411 kts 270°
2026-05-04 05:33 32.78487 -114.31580 27857 ft 411 kts 270°
2026-05-04 05:33 32.78804 -114.38312 27849 ft 412 kts 276°
2026-05-04 05:33 32.80491 -114.44914 27846 ft 417 kts 284°
2026-05-04 05:34 32.82308 -114.51471 27855 ft 417 kts 283°
2026-05-04 05:34 32.84108 -114.58050 27852 ft 417 kts 283°
2026-05-04 05:34 32.85865 -114.64504 27853 ft 417 kts 283°
2026-05-04 05:34 32.87633 -114.71158 27847 ft 414 kts 278°
2026-05-04 05:35 32.87815 -114.77906 27850 ft 408 kts 266°
2026-05-04 05:35 32.87654 -114.84562 27845 ft 408 kts 266°
2026-05-04 05:35 32.87515 -114.91395 27842 ft 407 kts 266°
2026-05-04 05:35 32.87377 -114.98014 27843 ft 407 kts 266°
2026-05-04 05:36 32.87280 -115.02125 27810 ft 407 kts 266°
2026-05-04 05:36 32.87200 -115.05401 27845 ft 398 kts 265°
2026-05-04 05:36 32.87148 -115.07629 27789 ft 397 kts 265°
2026-05-04 05:36 32.87045 -115.11952 27263 ft 393 kts 265°
2026-05-04 05:37 32.86991 -115.14143 26996 ft 392 kts 265°
2026-05-04 05:37 32.86908 -115.17385 26607 ft 391 kts 265°
2026-05-04 05:37 32.86802 -115.21658 26094 ft 389 kts 265°
2026-05-04 05:38 32.86670 -115.27033 25456 ft 388 kts 265°
2026-05-04 05:38 32.86562 -115.31272 24961 ft 385 kts 264°
2026-05-04 05:38 32.86502 -115.33389 24713 ft 375 kts 263°
2026-05-04 05:38 32.86176 -115.36395 24357 ft 360 kts 258°
2026-05-04 05:39 32.85768 -115.39294 24000 ft 350 kts 258°
2026-05-04 05:39 32.85005 -115.44746 23854 ft 316 kts 257°
2026-05-04 05:39 32.84655 -115.47253 23860 ft 298 kts 257°
2026-05-04 05:40 32.83943 -115.52019 23845 ft 292 kts 256°
2026-05-04 05:40 32.83554 -115.54379 23601 ft 290 kts 256°
2026-05-04 05:40 32.83164 -115.56712 23127 ft 287 kts 256°
2026-05-04 05:41 32.82775 -115.59040 22608 ft 286 kts 256°
2026-05-04 05:41 32.82388 -115.61358 22222 ft 285 kts 256°
2026-05-04 05:41 32.81999 -115.63687 22241 ft 288 kts 256°
2026-05-04 05:41 32.81612 -115.66019 22245 ft 288 kts 256°
2026-05-04 05:42 32.81232 -115.68328 22200 ft 287 kts 256°
2026-05-04 05:42 32.80850 -115.70660 21877 ft 288 kts 256°
2026-05-04 05:42 32.80466 -115.72990 21397 ft 286 kts 256°
2026-05-04 05:42 32.80083 -115.75305 20914 ft 285 kts 256°
2026-05-04 05:43 32.79708 -115.77569 20470 ft 284 kts 256°
2026-05-04 05:43 32.79328 -115.79868 20016 ft 283 kts 256°
2026-05-04 05:43 32.78937 -115.82237 19566 ft 306 kts 257°
2026-05-04 05:45 32.77364 -116.00321 16966 ft 314 kts 262°
2026-05-04 05:45 32.77169 -116.02902 16503 ft 314 kts 262°
2026-05-04 05:47 32.75801 -116.20896 13367 ft 309 kts 263°
2026-05-04 05:47 32.75606 -116.23423 12886 ft 307 kts 263°
2026-05-04 05:47 32.75413 -116.25932 12426 ft 305 kts 263°
2026-05-04 05:48 32.75220 -116.28428 12008 ft 301 kts 263°
2026-05-04 05:48 32.75029 -116.30876 11796 ft 294 kts 263°
2026-05-04 05:48 32.74844 -116.33275 11399 ft 290 kts 262°
2026-05-04 05:48 32.74659 -116.35655 10971 ft 288 kts 262°
2026-05-04 05:49 32.74475 -116.38017 10585 ft 286 kts 262°
2026-05-04 05:49 32.74292 -116.40358 10195 ft 283 kts 262°
2026-05-04 05:49 32.74109 -116.42672 9961 ft 282 kts 262°
2026-05-04 05:49 32.73924 -116.44997 9943 ft 283 kts 262°
2026-05-04 05:51 32.72516 -116.60643 8923 ft 257 kts 261°
2026-05-04 05:51 32.72308 -116.62745 8514 ft 256 kts 262°
2026-05-04 05:52 32.72103 -116.64837 8085 ft 255 kts 262°
2026-05-04 05:52 32.71904 -116.66934 7676 ft 255 kts 262°
2026-05-04 05:52 32.71772 -116.68498 7427 ft 256 kts 264°
2026-05-04 05:52 32.71604 -116.70606 7079 ft 256 kts 264°
2026-05-04 05:53 32.71422 -116.72705 6754 ft 256 kts 264°
2026-05-04 05:54 32.69072 -116.87145 4990 ft 258 kts 250°
2026-05-04 05:55 32.68469 -116.89096 4943 ft 245 kts 251°
2026-05-04 05:55 32.67916 -116.90955 4812 ft 232 kts 251°
2026-05-04 05:55 32.67428 -116.92731 4678 ft 220 kts 259°
2026-05-04 05:55 32.67395 -116.94533 4244 ft 222 kts 281°
2026-05-04 05:56 32.67826 -116.96306 3859 ft 223 kts 287°
2026-05-04 05:56 32.68269 -116.98052 3604 ft 219 kts 286°
2026-05-04 05:56 32.68696 -116.99769 3351 ft 212 kts 285°
2026-05-04 05:56 32.69096 -117.01398 3120 ft 200 kts 285°
2026-05-04 05:57 32.69474 -117.02942 2854 ft 191 kts 285°
2026-05-04 05:57 32.69836 -117.04421 2672 ft 183 kts 285°
2026-05-04 05:57 32.70180 -117.05836 2398 ft 172 kts 285°
2026-05-04 05:57 32.70489 -117.07112 2196 ft 150 kts 285°
2026-05-04 05:58 32.70764 -117.08244 2011 ft 137 kts 285°
2026-05-04 05:58 32.71028 -117.09332 1795 ft 137 kts 285°
2026-05-04 05:58 32.71289 -117.10416 1575 ft 136 kts 285°
2026-05-04 05:58 32.71550 -117.11498 1360 ft 136 kts 285°
2026-05-04 05:59 32.71806 -117.12574 1136 ft 135 kts 285°
2026-05-04 05:59 32.72067 -117.13645 819 ft 135 kts 285°
2026-05-04 05:59 32.72319 -117.14721 602 ft 137 kts 283°
2026-05-04 05:59 32.72579 -117.15799 412 ft 135 kts 285°
2026-05-04 06:00 32.72845 -117.16872 233 ft 134 kts 285°
2026-05-04 06:00 32.73102 -117.17930 55 ft 134 kts 285°
2026-05-04 06:00 32.73341 -117.18909 26 ft 94 kts 287°
2026-05-04 06:00 32.73462 -117.19387 29 ft 38 kts 285°
2026-05-04 06:01 32.73520 -117.19642 29 ft 27 kts 287°
2026-05-04 06:01 32.73522 -117.19788 30 ft 13 kts 252°
2026-05-04 06:03 32.73442 -117.20260 26 ft 6 kts 196°
2026-05-04 06:03 32.73400 -117.20274 24 ft 6 kts 193°
2026-05-04 06:05 32.73334 -117.20349 25 ft 0 kts 264°